CW9665 Weather Reports


time (UTC)temp
C
wind
direction
speed
KPH
gust
KPH
rain 1hr
cm
rain 24hr
cm
rain mn
cm
humidity
%
barometer
mb
20260505124914 3 133 0.0 0.0 0.00 0.00 0.00 77 1012.3
20260505123913 2 133 0.0 0.0 0.00 0.00 0.00 77 1012.3
20260505122911 2 133 0.0 0.0 0.00 0.00 0.00 77 1012.1
20260505121906 2 133 0.0 0.0 0.00 0.00 0.00 77 1012.1
20260505120904 2 133 0.0 0.0 0.00 0.00 0.00 78 1012.4
20260505115859 2 133 0.0 0.0 0.00 0.00 0.00 76 1011.9
20260505114854 2 133 0.0 0.0 0.00 0.00 0.00 76 1012.2
20260505113853 3 133 0.0 0.0 0.00 0.00 0.00 75 1011.7
20260505112851 3 133 0.0 0.0 0.00 0.00 0.00 75 1011.8
20260505111850 3 133 0.0 0.0 0.00 0.00 0.00 74 1011.8
20260505110847 3 132 1.6 1.6 0.00 0.00 0.00 73 1011.7
20260505101838 4 142 0.0 0.0 0.00 0.00 0.00 73 1011.7
20260505100835 4 142 0.0 0.0 0.00 0.00 0.00 72 1011.7
20260505095833 5 142 0.0 0.0 0.00 0.00 0.00 70 1012.1
20260505094833 5 142 0.0 0.0 0.00 0.00 0.00 70 1012.2
20260505093831 5 142 0.0 0.0 0.00 0.00 0.00 68 1012.2
20260505092826 5 142 0.0 0.0 0.00 0.00 0.00 68 1012.2
20260505091821 5 143 0.0 0.0 0.00 0.00 0.00 67 1012.4
20260505090817 6 143 1.6 1.6 0.00 0.00 0.00 67 1012.7
20260505085812 6 143 1.6 0.0 0.00 0.00 0.00 66 1012.6
20260505084807 6 143 0.0 0.0 0.00 0.00 0.00 65 1012.8
20260505083802 6 135 0.0 0.0 0.00 0.00 0.00 64 1012.8
20260505082801 6 136 0.0 0.0 0.00 0.00 0.00 63 1013.0
20260505081800 6 130 0.0 0.0 0.00 0.00 0.00 63 1013.3
20260505080800 6 129 1.6 1.6 0.00 0.00 0.00 62 1013.2
20260505075757 6 150 0.0 0.0 0.00 0.00 0.00 62 1013.0
20260505074752 7 101 1.6 3.2 0.00 0.00 0.00 62 1013.3
20260505073747 7 124 4.8 4.8 0.00 0.00 0.00 61 1013.2
20260505072747 6 146 1.6 1.6 0.00 0.00 0.00 61 1013.5
20260505071745 7 146 0.0 0.0 0.00 0.00 0.00 59 1013.3
20260505070739 7 147 0.0 0.0 0.00 0.00 0.00 59 1013.1
20260505065737 7 145 1.6 1.6 0.00 0.00 0.00 58 1012.7
20260505064737 7 145 1.6 3.2 0.00 0.00 0.00 56 1012.8
20260505063737 7 144 4.8 4.8 0.00 0.00 0.00 55 1012.6
20260505062736 8 145 3.2 3.2 0.00 0.00 0.00 53 1012.6
20260505061736 8 145 1.6 3.2 0.00 0.00 0.00 50 1012.4
20260505060731 8 136 0.0 0.0 0.00 0.00 0.00 48 1012.3
20260505055729 9 149 3.2 4.8 0.00 0.00 0.00 45 1012.4
20260505054730 10 140 3.2 3.2 0.00 0.00 0.00 39 1012.1
20260505053725 11 127 3.2 4.8 0.00 0.00 0.00 27 1012.2
20260505052725 11 56 6.4 6.4 0.00 0.00 0.00 24 1012.1
20260505051725 11 173 1.6 1.6 0.00 0.00 0.00 24 1012.2
20260505050720 12 132 1.6 1.6 0.00 0.00 0.00 22 1012.1
20260505041711 13 79 8.0 11.3 0.00 0.00 0.00 20 1012.2
20260505040706 13 319 4.8 4.8 0.00 0.00 0.00 20 1012.1
20260505035706 12 186 3.2 4.8 0.00 0.00 0.00 21 1012.1
20260505034704 12 155 1.6 1.6 0.00 0.00 0.00 21 1012.1
20260505033703 12 163 3.2 3.2 0.00 0.00 0.00 20 1011.8
20260505032659 13 136 3.2 4.8 0.00 0.00 0.00 20 1011.4
20260505031658 12 171 3.2 4.8 0.00 0.00 0.00 20 1011.3
20260505030657 13 138 3.2 3.2 0.00 0.00 0.00 21 1011.2
20260505025654 13 326 9.7 16.1 0.00 0.00 0.00 18 1010.6
20260505024650 13 355 6.4 11.3 0.00 0.00 0.00 18 1010.7
20260505023645 13 270 8.0 9.7 0.00 0.00 0.00 18 1010.8
20260505022645 13 169 3.2 3.2 0.00 0.00 0.00 18 1010.8
20260505021645 13 183 4.8 6.4 0.00 0.00 0.00 17 1010.9
20260505020643 13 76 1.6 3.2 0.00 0.00 0.00 19 1010.4
20260505015642 13 181 3.2 3.2 0.00 0.00 0.00 18 1010.4
20260505014641 13 17 9.7 11.3 0.00 0.00 0.00 17 1010.4
20260505013636 14 85 1.6 3.2 0.00 0.00 0.00 17 1010.3
20260505012631 14 138 4.8 4.8 0.00 0.00 0.00 17 1010.0
20260505011629 14 178 4.8 4.8 0.00 0.00 0.00 18 1009.8
20260505010627 15 180 3.2 4.8 0.00 0.00 0.00 17 1010.0
20260505005626 15 202 6.4 6.4 0.00 0.00 0.00 17 1009.9
20260505004626 15 183 1.6 3.2 0.00 0.00 0.00 17 1009.9
20260505003626 15 184 4.8 4.8 0.00 0.00 0.00 16 1010.0
20260505002625 15 175 4.8 6.4 0.00 0.00 0.00 16 1009.9
20260505001620 16 185 6.4 11.3 0.00 0.00 0.00 16 1010.2
20260505000615 16 190 4.8 4.8 0.00 0.00 0.00 16 1010.0
20260504235614 16 291 4.8 6.4 0.00 0.00 0.00 16 1009.9
20260504234614 16 327 3.2 4.8 0.00 0.00 0.00 18 1009.8
20260504233613 16 187 6.4 9.7 0.00 0.00 0.00 19 1010.0
20260504232613 16 208 11.3 16.1 0.00 0.00 0.00 18 1010.0
20260504231612 17 216 8.0 9.7 0.00 0.00 0.00 20 1010.2
20260504230610 17 146 3.2 4.8 0.00 0.00 0.00 20 1009.8
20260504225607 17 203 9.7 14.5 0.00 0.00 0.00 20 1010.3
20260504224606 18 264 9.7 12.9 0.00 0.00 0.00 19 1010.3
20260504223606 18 245 9.7 11.3 0.00 0.00 0.00 19 1010.3
20260504222604 18 181 6.4 6.4 0.00 0.00 0.00 20 1010.4
20260504221559 18 225 12.9 16.1 0.00 0.00 0.00 20 1010.4
20260504220558 18 196 9.7 11.3 0.00 0.00 0.00 19 1010.8
20260504215557 18 203 9.7 14.5 0.00 0.00 0.00 20 1010.9
20260504214556 19 182 6.4 9.7 0.00 0.00 0.00 20 1010.8
20260504213555 18 197 6.4 6.4 0.00 0.00 0.00 21 1010.9
20260504212554 18 213 6.4 6.4 0.00 0.00 0.00 21 1011.2
20260504211554 20 177 4.8 4.8 0.00 0.00 0.00 20 1011.2
20260504210554 19 194 8.0 11.3 0.00 0.00 0.00 19 1011.3
20260504205554 20 35 12.9 17.7 0.00 0.00 0.00 20 1011.1
20260504204549 20 175 6.4 6.4 0.00 0.00 0.00 21 1011.4
20260504203546 19 147 1.6 1.6 0.00 0.00 0.00 22 1011.4
20260504202545 18 96 6.4 6.4 0.00 0.00 0.00 23 1011.6
20260504201539 18 346 12.9 16.1 0.00 0.00 0.00 22 1012.1
20260504200538 17 171 3.2 3.2 0.00 0.00 0.00 23 1012.2
20260504195537 18 205 8.0 9.7 0.00 0.00 0.00 23 1012.1
20260504194537 18 183 4.8 4.8 0.00 0.00 0.00 22 1012.2
20260504193534 17 114 3.2 4.8 0.00 0.00 0.00 23 1012.1
20260504192531 16 151 1.6 1.6 0.00 0.00 0.00 24 1012.7
20260504191527 16 177 6.4 6.4 0.00 0.00 0.00 24 1012.6
20260504190525 15 151 1.6 1.6 0.00 0.00 0.00 24 1012.7
20260504185524 15 198 3.2 3.2 0.00 0.00 0.00 24 1013.0
20260504184521 15 140 3.2 3.2 0.00 0.00 0.00 26 1013.0
20260504183520 15 174 0.0 1.6 0.00 0.00 0.00 27 1013.1
20260504182520 15 155 1.6 3.2 0.00 0.00 0.00 26 1013.6
20260504181515 15 179 0.0 0.0 0.00 0.00 0.00 27 1013.3
20260504180512 15 174 3.2 4.8 0.00 0.00 0.00 29 1013.8
20260504175507 15 186 4.8 4.8 0.00 0.00 0.00 29 1013.6
20260504174502 14 159 1.6 1.6 0.00 0.00 0.00 29 1013.8
20260504173501 14 152 0.0 0.0 0.00 0.00 0.00 30 1013.8
20260504172500 14 156 1.6 1.6 0.00 0.00 0.00 29 1013.6
20260504171500 15 156 3.2 3.2 0.00 0.00 0.00 30 1013.8
20260504170458 15 186 1.6 1.6 0.00 0.00 0.00 31 1014.0
20260504150437 13 57 4.8 6.4 0.00 0.00 0.00 32 1013.7